Regional Weather Roundup
Issued by NWS

Home | Current Version | Previous Version | Graphics & Text | Print | Product List | Glossary On
Versions: 1 2 3 4 5 6 7 8 9 10 11 12 13 14 15 16 17 18 19 20 21 22 23 24 25 26 27 28 29 30 31 32 33 34 35 36 37 38 39 40 41 42 43 44 45 46 47 48 49 50
000
ASUS43 KLOT 281102
RWRIL

ILLINOIS REGIONAL WEATHER ROUNDUP
NATIONAL WEATHER SERVICE CHICAGO/ROMEOVILLE IL
600 AM CDT SAT MAR 28 2015

NOTE: "FAIR" INDICATES FEW OR NO CLOUDS BELOW 12,000 FEET WITH NO
SIGNIFICANT WEATHER AND/OR OBSTRUCTIONS TO VISIBILITY.

* THESE STATIONS ARE NOT UNDER NWS QUALITY CONTROL. THEY ALSO MAY NOT
  REPORT WEATHER SUCH AS PRECIPITATION OR FOG.

ILZ001-002-007-009-015-016-024-281200-
NORTHWEST ILLINOIS

CITY           SKY/WX    TMP DP  RH WIND       PRES   REMARKS
MOLINE         PTCLDY    17  12  80 E6        30.26R WCI   9
STERLING*      PTCLDY    18  16  93 CALM      30.27R
$$

ILZ003-004-008-010-011-017-018-281200-
NORTH CENTRAL ILLINOIS

CITY           SKY/WX    TMP DP  RH WIND       PRES   REMARKS
ROCKFORD       CLEAR     16  11  80 NE3       30.28R
$$

ILZ005-006-012>014-019>023-281200-
NORTHEAST ILLINOIS

CITY           SKY/WX    TMP DP  RH WIND       PRES   REMARKS
CHICAGO-OHARE  CLEAR     20  13  74 N6        30.25R WCI  12
CHICAGO-MIDWAY CLEAR     23  14  68 N3        30.26R
AURORA         CLEAR     16  11  80 NW5       30.26R WCI   9
WAUKEGAN       CLEAR     15  12  88 NW5       30.26R WCI   8
DUPAGE AIRPORT CLEAR     15  10  80 N3        30.25R
WHEELING       CLEAR     20  14  77 NE3       30.27R
NORTHERLY ISL    N/A     24  10  55 N8          N/A  WCI  15
$$

LMZ740>746-281200-
SOUTHERN LAKE MICHIGAN

STATION/POSITION SKY/WX   TEMP    WIND        PRES    VSBY  WAVE
                          AIR SEA DIR/SP/G                  HT/PER
                          (F)     (DEG/KT/KT) (MB)    (MI)  (FT/S)
HARRISON CRIB              25      30/ 10/ 14   N/A
BURNHAM HARBOR             25     340/  7/ 13   N/A
CALUMET HARBOR             25      10/  8/ 12 1022.8R
BURNS HARBOR               24      50/  9/ 13 1024.4R
MICHIGAN CITY              19      80/  5/  6   N/A
$$

ILZ025>027-034>036-040-047-049-050-058-095>099-281200-
WEST-CENTRAL ILLINOIS

CITY           SKY/WX    TMP DP  RH WIND       PRES   REMARKS
QUINCY         PTCLDY    26  16  65 E7        30.22R WCI  18
$$

ILZ028>032-037-038-041>044-048-051>054-059>061-281200-
CENTRAL ILLINOIS

CITY           SKY/WX    TMP DP  RH WIND       PRES   REMARKS
DECATUR        CLEAR     21  16  81 CALM      30.25R
PEORIA         CLEAR     23  13  65 CALM      30.27R
SPRINGFIELD    PTCLDY    23  17  78 E5        30.25R WCI  17
TAYLORVILLE    NOT AVBL
$$

ILZ033-039-045-046-055>057-062-063-281200-
EAST-CENTRAL ILLINOIS

CITY           SKY/WX    TMP DP  RH WIND       PRES   REMARKS
CHAMPAIGN      CLEAR     19  14  81 CALM      30.24R
RANTOUL*       CLEAR     21  16  82 N3        30.23R
MATTOON        CLEAR     21  14  74 NE5       30.23R WCI  15
$$

ILZ079-100>102-281200-
SOUTHWEST ILLINOIS

CITY           SKY/WX    TMP DP  RH WIND       PRES   REMARKS
CAHOKIA*       PTCLDY    28  22  78 CALM      30.24R
$$

ILZ064>066-069>071-074>076-080>082-084>086-088>090-092>094-281200-
SOUTH-CENTRAL ILLINOIS

CITY           SKY/WX    TMP DP  RH WIND       PRES   REMARKS
CARBONDALE     PTCLDY    25  21  85 CALM      30.23R
MT. VERNON     PTCLDY    23  16  74 N5        30.24R WCI  17
$$

ILZ067-068-072-073-078-083-087-091-281200-
SOUTHEAST ILLINOIS

CITY           SKY/WX    TMP DP  RH WIND       PRES   REMARKS
LAWRENCEVILLE  CLEAR     22  15  75 N8        30.25R WCI  12
$$

ABBREVIATIONS USED IN REMARKS
   TC - TEMPERATURE IN CELSIUS
  WCI - WIND CHILL INDEX
   HX - HEAT INDEX
  VSB - VISIBILITY
$$




USA.gov is the U.S. government's official web portal to all federal, state and local government web resources and services.